Chicago Midway, IL

4:47 PM CDT on July 20, 2017 (GMT -0500)
Chicago-Midway

Weather History for KMDW - June, 2013

Change the Weather History Date:

Sunday, June 9, 2013

  Actual Average Record
Temperature  
Mean Temperature 71 °F 69 °F  
Max Temperature 83 °F 78 °F 96 °F (1968)
Min Temperature 58 °F 60 °F 42 °F (1977)
Degree Days  
Heating Degree Days 0 1  
Month to date heating degree days 35 18  
Since 1 June heating degree days 35 18  
Since 1 July heating degree days 5827 5977  
Cooling Degree Days 6 5  
Month to date cooling degree days 12 37  
Year to date cooling degree days 118 111  
Since 1 June cooling degree days 12 37  
Growing Degree Days 20 (Base 50)    
Moisture  
Dew Point 53 °F    
Average Humidity 51    
Maximum Humidity 75    
Minimum Humidity 29    
Precipitation  
Precipitation 0.01 in 0.14 in 2.58 in (2011)
Month to date precipitation 0.52 1.33  
Year to date precipitation 18.11 15.82  
Sea Level Pressure  
Sea Level Pressure 29.90 in    
Wind  
Wind Speed 8 mph (SE)    
Max Wind Speed 20 mph    
Max Gust Speed 26 mph    
Visibility 10 miles    
Events Rain    
T = Trace of Precipitation, MM = Missing Value Source: NWS Daily Summary

Daily Weather History Graph

Daily Weather History Graph

Search for Another Location

Airport or City:

Trip Planner

Search our weather history database for the weather conditions in past years. The results will help you decide how hot, cold, wet, or windy it might be!

Date:

Astronomy

Jun. 09, 2013 Rise Set
Actual Time 5:16 AM CDT 8:24 PM CDT
Civil Twilight 4:42 AM CDT 8:58 PM CDT
Nautical Twilight 3:58 AM CDT 9:42 PM CDT
Astronomical Twilight 3:06 AM CDT 10:34 PM CDT
Moon 6:13 AM CDT (6/9) 9:10 PM CDT (6/9)
Length of Visible Light 16h 16m
Length of Day
15h 08m
New Moon, 1% of the Moon is Illuminated
Jun 9
New Moon
Jun 16
First Quarter
Jun 23
Full
Jun 29
Last Quarter
Jul 8
New

Hourly Weather History & Observations

Time (CDT) Temp. Heat Index Dew Point Humidity Pressure Visibility Wind Dir Wind Speed Gust Speed Precip Events Conditions
12:51 AM 60.1 °F - 48.9 °F 67% 30.00 in 10.0 mi ENE 3.5 mph - N/A   Mostly Cloudy
1:51 AM 59.0 °F - 50.0 °F 72% 29.99 in 10.0 mi NNE 5.8 mph - N/A   Mostly Cloudy
2:51 AM 60.1 °F - 48.9 °F 67% 29.97 in 10.0 mi NE 5.8 mph - N/A   Mostly Cloudy
3:51 AM 59.0 °F - 50.0 °F 72% 29.98 in 10.0 mi ENE 4.6 mph - N/A   Scattered Clouds
4:51 AM 59.0 °F - 51.1 °F 75% 29.99 in 10.0 mi East 3.5 mph - N/A   Mostly Cloudy
5:51 AM 60.1 °F - 52.0 °F 75% 29.98 in 10.0 mi Calm Calm - N/A   Mostly Cloudy
6:51 AM 62.1 °F - 53.1 °F 72% 29.97 in 10.0 mi SE 4.6 mph - N/A   Mostly Cloudy
7:51 AM 66.9 °F - 55.0 °F 66% 29.97 in 10.0 mi SSE 6.9 mph - N/A   Mostly Cloudy
8:51 AM 71.1 °F - 57.0 °F 61% 29.96 in 10.0 mi SSE 5.8 mph - N/A   Mostly Cloudy
9:51 AM 75.0 °F - 57.9 °F 55% 29.95 in 10.0 mi SE 9.2 mph - N/A   Mostly Cloudy
10:51 AM 79.0 °F - 54.0 °F 42% 29.94 in 10.0 mi South 10.4 mph - N/A   Mostly Cloudy
11:51 AM 79.0 °F - 54.0 °F 42% 29.93 in 10.0 mi South 11.5 mph - N/A   Overcast
12:51 PM 80.1 °F 79.9 °F 53.1 °F 39% 29.90 in 10.0 mi South 10.4 mph 19.6 mph N/A   Mostly Cloudy
1:51 PM 80.1 °F - 52.0 °F 38% 29.88 in 10.0 mi SE 10.4 mph 21.9 mph N/A   Overcast
2:51 PM 81.0 °F - 52.0 °F 36% 29.86 in 10.0 mi South 16.1 mph 24.2 mph N/A   Overcast
3:51 PM 80.1 °F 79.9 °F 53.1 °F 39% 29.85 in 10.0 mi SE 17.3 mph 20.7 mph N/A   Overcast
4:51 PM 81.0 °F - 52.0 °F 36% 29.83 in 10.0 mi SSE 11.5 mph 26.5 mph N/A   Overcast
5:51 PM 81.0 °F - 51.1 °F 35% 29.81 in 10.0 mi SE 13.8 mph 20.7 mph N/A   Overcast
6:51 PM 80.1 °F - 52.0 °F 38% 29.81 in 10.0 mi SE 13.8 mph - N/A   Overcast
7:51 PM 79.0 °F - 52.0 °F 39% 29.79 in 10.0 mi SE 9.2 mph - N/A   Overcast
8:51 PM 77.0 °F - 53.1 °F 43% 29.79 in 10.0 mi SE 6.9 mph - N/A   Overcast
9:51 PM 77.0 °F - 53.1 °F 43% 29.80 in 10.0 mi SE 5.8 mph - N/A   Overcast
10:51 PM 75.0 °F - 54.0 °F 48% 29.79 in 10.0 mi South 6.9 mph - 0.00 in Rain Light Rain
11:51 PM 72.0 °F - 59.0 °F 64% 29.79 in 10.0 mi South 6.9 mph - 0.00 in Rain Light Rain